Retour au catalogue

STARLINK-11213

ActifCommunicationsVLEO
NORAD 60309·PAYLOAD·🇺🇸 United States

Lancé Jul 28, 2024 depuis Vandenberg Space Force Base

Loading…

Prochains Passages (prochaines 24 heures)

TLE

FraisSource: CelesTrak SupGP

Époque: Sep 14, 2026, 20:34 UTC

1 60309C 24133J   26257.85743056  .00004132  00000+0  34038-4 0  2579
2 60309  53.1571 293.4536 0001019  95.8743  71.0871 15.69708452    13

Suivez STARLINK-11213 en temps réel avec AllMySat

Download on the App Store